Tracking 19831 objects as of 23-Aug-2019
HD Live streaming from Space Station
objects crossing your sky now

INS-1A

Track INS-1A now!
10-day predictions


NORAD ID: 41949
Int'l Code: 2017-008B
Perigee: 495.7 km
Apogee: 506.2 km
Inclination: 97.4 °
Period: 94.5 minutes
Semi major axis: 6871 km
RCS: Unknown
Launch date: February 15, 2017
Source: India (IND)
Launch site: SRIHARIKOTA (SRI)
aabbcc
Your satellite tracking list
Your tracking list is empty




NASA's NSSDC Master Catalog

Two Line Element Set (TLE):
1 41949U 17008B   19235.13803034  .00000659  00000-0  30126-4 0  9991
2 41949  97.3956 299.2653 0007687 274.4103  85.6256 15.23996135139811
Source of the keplerian elements: AFSPC